Preview of NWS' New Version of Forecast
This preview is not operational and should not be used for support decisions.

Regional Weather Roundup (RWR)

Issued by National Weather Service (NWS)

                            
000
ASUS44 KMEG 211910
RWRTN 
TENNESSEE HOURLY STATE WEATHER ROUNDUP
NATIONAL WEATHER SERVICE MEMPHIS TN
200 PM CDT SAT SEP 21 2019

TNZ002-004-019-021-049-052-054-088>092-212000-
WEST TENNESSEE
  
CITY           SKY/WX    TMP DP  RH WIND       PRES   REMARKS
MEMPHIS INTL   FAIR      89  59  36 S12G18    30.16F                  
NWS MEMPHIS      N/A     91 N/A N/A MISG        N/A                   
JACKSON        FAIR      89  59  36 SW13G18   30.19F                  
DYERSBURG      FAIR      89  59  36 S10       30.17F                  
SOMERVILLE     MOSUNNY   90  57  33 S12G17    30.17F                  
COVINGTON      SUNNY     90  59  35 SW12      30.16F                  
UNION CITY     SUNNY     90  57  33 S8G18     30.15F                  
BOLIVAR        MOSUNNY   88  59  37 SE12G18   30.17F                  
PARIS          SUNNY     88  55  33 S12G18    30.18F                  
HUNTINGDON     SUNNY     88  59  37 SW9G16    30.18F                  
LEXINGTON      MOSUNNY   88  55  33 SW9G15    30.18F                  
SELMER         MOSUNNY   88  57  35 S7        30.19F                  
SAVANNAH       SUNNY     90  59  35 S7        30.18F                  
$$

TNZ008-025-027-028-033-062-065-066-212000-
NORTH MIDDLE TENNESSEE
  
CITY           SKY/WX    TMP DP  RH WIND       PRES   REMARKS
NASHVILLE      FAIR      91  52  26 S8        30.21F                  
DICKSON        CLEAR     86  52  30 SW7G17    30.19F                  
PORTLAND       SUNNY     88  55  33 VRB5G15   30.21F                  
CLARKSVILLE    FAIR      89  55  31 SW8       30.18F                  
LEBANON        CLEAR     88  52  29 VRB3G14   30.19F                  
SMYRNA         FAIR      89  54  30 SE8       30.21F                  
MURFREESBORO   CLEAR     88  52  29 S8G15     30.19F                  
COOKEVILLE     SUNNY     86  54  32 CALM      30.24F                  
LIVINGSTON     CLEAR     86  52  30 S6G12     30.25F                  
CROSSVILLE     FAIR      82  55  39 VRB6      30.30F                  
ROCKWOOD       CLEAR     82  55  39 VRB7      30.28F                  
$$

TNZ061-075-076-078-094-096-097-212000-
SOUTH MIDDLE TENNESSEE
  
CITY           SKY/WX    TMP DP  RH WIND       PRES   REMARKS
LAWRENCEBURG   CLEAR     86  54  32 S9        30.22F                  
LEWISBURG      CLEAR     88  54  31 SW9G15    30.21F                  
FAYETTEVILLE   SUNNY     84  55  37 VRB6      30.22F                  
TULLAHOMA      SUNNY     84  54  34 VRB5      30.23F                  
WINCHESTER     SUNNY     86  50  28 S6G16     30.23F                  
MCMINNVILLE    SUNNY     86  52  30 CALM      30.22F                  
COLUMBIA       SUNNY     88  52  29 VRB5      30.19F                  
SHELBYVILLE    SUNNY     86  55  35 VRB5      30.22F                  
$$

TNZ017-018-042-046-047-212000-
NORTHEAST TENNESSEE
  
CITY           SKY/WX    TMP DP  RH WIND       PRES   REMARKS
TRI CITIES     FAIR      84  59  42 CALM      30.28F                  
ELIZABETHTON   PTSUNNY   84  59  42 VRB3G12   30.27F                  
GREENEVILLE    CLEAR     82  57  42 CALM      30.28F                  
$$

TNZ012-013-036-069-073-074-212000-
CENTRAL EAST TENNESSEE
  
CITY           SKY/WX    TMP DP  RH WIND       PRES   REMARKS
KNOXVILLE      FAIR      86  55  34 VRB3      30.24F                  
OAK RIDGE      FAIR      86  58  38 SE5       30.27F                  
DOWNTOWN KNOXV SUNNY     86  59  39 CALM      30.25F                  
GATLINBURG     MOSUNNY   88  59  37 CALM      30.24F                  
MORRISTOWN     SUNNY     84  55  37 CALM      30.26F                  
JACKSBORO      SUNNY     84  57  39 VRB7      30.29F                  
$$

TNZ083-085-099-212000-
SOUTHEAST TENNESSEE
  
CITY           SKY/WX    TMP DP  RH WIND       PRES   REMARKS
CHATTANOOGA    FAIR      86  55  34 VRB3      30.25F                  
$$

SKY/WX REPORTED AS FAIR MEANS FEW OR NO CLOUDS BELOW
12 THOUSAND FEET.